SAS1992 NZAA-NZWN

Flight info

Callsign SAS1992
Flight time 0h 51m
Altitude 38000
Route IGBAT Y506 TPAPA
Aircraft B736/M-SDE2E3FGHIRWXY/LB1

Departure

Time 2026-05-07 05:13
Airport Auckland International Airport (NZAA)

Arrival

Time 2026-05-07 06:05
Airport Wellington International Airport (NZWN)
Time Latitude Longitude Altitude Speed Heading
2026-05-07 04:55 -37.00749 174.78970 24 ft 0 kts 355°
2026-05-07 05:04 -37.00750 174.78970 30 ft 2 kts 354°
2026-05-07 05:04 -37.00767 174.78974 29 ft 2 kts 347°
2026-05-07 05:04 -37.00783 174.78980 28 ft 2 kts 336°
2026-05-07 05:05 -37.00797 174.78990 25 ft 2 kts 318°
2026-05-07 05:05 -37.00807 174.79006 24 ft 2 kts 292°
2026-05-07 05:05 -37.00811 174.79026 27 ft 2 kts 268°
2026-05-07 05:05 -37.00810 174.79038 28 ft 0 kts 257°
2026-05-07 05:07 -37.00810 174.79036 28 ft 1 kts 255°
2026-05-07 05:08 -37.00818 174.79006 24 ft 6 kts 250°
2026-05-07 05:08 -37.00833 174.78952 24 ft 7 kts 251°
2026-05-07 05:08 -37.00851 174.78898 28 ft 7 kts 234°
2026-05-07 05:08 -37.00900 174.78882 27 ft 9 kts 175°
2026-05-07 05:09 -37.00951 174.78842 27 ft 10 kts 248°
2026-05-07 05:09 -37.00977 174.78747 24 ft 13 kts 251°
2026-05-07 05:09 -37.01009 174.78634 24 ft 14 kts 251°
2026-05-07 05:09 -37.01040 174.78520 28 ft 14 kts 251°
2026-05-07 05:10 -37.01076 174.78398 25 ft 12 kts 246°
2026-05-07 05:10 -37.01100 174.78304 27 ft 12 kts 253°
2026-05-07 05:10 -37.01130 174.78195 26 ft 15 kts 250°
2026-05-07 05:10 -37.01169 174.78056 27 ft 18 kts 251°
2026-05-07 05:11 -37.01207 174.77918 25 ft 16 kts 251°
2026-05-07 05:11 -37.01244 174.77798 28 ft 14 kts 230°
2026-05-07 05:11 -37.01329 174.77793 26 ft 13 kts 161°
2026-05-07 05:11 -37.01403 174.77828 27 ft 9 kts 147°
2026-05-07 05:12 -37.01406 174.77898 25 ft 9 kts 71°
2026-05-07 05:12 -37.01403 174.77911 25 ft 0 kts 71°
2026-05-07 05:12 -37.01382 174.77986 27 ft 38 kts 71°
2026-05-07 05:13 -37.01209 174.78613 29 ft 112 kts 71°
2026-05-07 05:13 -37.00891 174.79771 71 ft 164 kts 69°
2026-05-07 05:13 -37.00523 174.81216 579 ft 183 kts 71°
2026-05-07 05:13 -37.00127 174.82819 1037 ft 199 kts 71°
2026-05-07 05:14 -36.99711 174.84497 1800 ft 202 kts 69°
2026-05-07 05:14 -36.99268 174.86219 2286 ft 220 kts 69°
2026-05-07 05:14 -36.98769 174.88109 2844 ft 236 kts 68°
2026-05-07 05:14 -36.98232 174.90084 3565 ft 243 kts 68°
2026-05-07 05:15 -36.97678 174.92094 4405 ft 246 kts 69°
2026-05-07 05:15 -36.97148 174.94154 5182 ft 253 kts 76°
2026-05-07 05:15 -36.97185 174.96388 5904 ft 266 kts 102°
2026-05-07 05:15 -36.98020 174.98493 6674 ft 277 kts 127°
2026-05-07 05:16 -36.99508 175.00135 7364 ft 289 kts 149°
2026-05-07 05:16 -37.01369 175.01066 8112 ft 297 kts 168°
2026-05-07 05:16 -37.03450 175.01249 8909 ft 304 kts 186°
2026-05-07 05:16 -37.05498 175.00707 9744 ft 299 kts 200°
2026-05-07 05:17 -37.07397 174.99680 10349 ft 298 kts 211°
2026-05-07 05:17 -37.09208 174.98392 10950 ft 302 kts 214°
2026-05-07 05:17 -37.11039 174.96859 11171 ft 330 kts 217°
2026-05-07 05:17 -37.12993 174.95240 11806 ft 341 kts 214°
2026-05-07 05:18 -37.15047 174.93723 12756 ft 343 kts 211°
2026-05-07 05:18 -37.17170 174.92329 13698 ft 347 kts 208°
2026-05-07 05:18 -37.19370 174.91018 14542 ft 352 kts 206°
2026-05-07 05:18 -37.21618 174.89768 15401 ft 355 kts 205°
2026-05-07 05:19 -37.23905 174.88553 16273 ft 359 kts 205°
2026-05-07 05:19 -37.26222 174.87356 17132 ft 362 kts 204°
2026-05-07 05:19 -37.28572 174.86162 17976 ft 367 kts 204°
2026-05-07 05:19 -37.30953 174.84961 18784 ft 371 kts 204°
2026-05-07 05:20 -37.33308 174.83779 19517 ft 374 kts 204°
2026-05-07 05:20 -37.35735 174.82561 20278 ft 377 kts 204°
2026-05-07 05:20 -37.38184 174.81333 21031 ft 380 kts 204°
2026-05-07 05:20 -37.40654 174.80094 21768 ft 384 kts 203°
2026-05-07 05:21 -37.43146 174.78842 22499 ft 388 kts 203°
2026-05-07 05:21 -37.48192 174.76256 23906 ft 395 kts 205°
2026-05-07 05:21 -37.50728 174.74868 24493 ft 399 kts 205°
2026-05-07 05:22 -37.53249 174.73503 25117 ft 401 kts 204°
2026-05-07 05:22 -37.55448 174.72344 25661 ft 403 kts 204°
2026-05-07 05:22 -37.58089 174.70985 26289 ft 406 kts 203°
2026-05-07 05:22 -37.60722 174.69655 26856 ft 409 kts 203°
2026-05-07 05:23 -37.63382 174.68326 27435 ft 413 kts 202°
2026-05-07 05:23 -37.66062 174.66994 28021 ft 415 kts 202°
2026-05-07 05:23 -37.68763 174.65653 28586 ft 418 kts 202°
2026-05-07 05:23 -37.71483 174.64301 29110 ft 422 kts 202°
2026-05-07 05:24 -37.74224 174.62937 29632 ft 425 kts 202°
2026-05-07 05:24 -37.76983 174.61563 30161 ft 428 kts 202°
2026-05-07 05:24 -37.79763 174.60177 30604 ft 431 kts 203°
2026-05-07 05:24 -37.82561 174.58780 31014 ft 434 kts 203°
2026-05-07 05:25 -37.85370 174.57376 31489 ft 434 kts 203°
2026-05-07 05:25 -37.88172 174.55975 32118 ft 431 kts 204°
2026-05-07 05:25 -37.90943 174.54589 32779 ft 427 kts 204°
2026-05-07 05:25 -37.92770 174.53674 33150 ft 426 kts 204°
2026-05-07 05:26 -37.96466 174.51856 33789 ft 427 kts 201°
2026-05-07 05:26 -37.98353 174.51154 34105 ft 428 kts 196°
2026-05-07 05:26 -38.01301 174.50560 34573 ft 429 kts 190°
2026-05-07 05:26 -38.04269 174.50153 34965 ft 429 kts 189°
2026-05-07 05:27 -38.07251 174.49777 35184 ft 432 kts 189°
2026-05-07 05:27 -38.13241 174.49018 35179 ft 431 kts 189°
2026-05-07 05:28 -38.19201 174.48220 35192 ft 430 kts 189°
2026-05-07 05:28 -38.25156 174.47397 35190 ft 431 kts 189°
2026-05-07 05:29 -38.31114 174.46566 35185 ft 431 kts 189°
2026-05-07 05:29 -38.37041 174.45738 35186 ft 431 kts 189°
2026-05-07 05:30 -38.43013 174.44903 35180 ft 432 kts 189°
2026-05-07 05:30 -38.48991 174.44066 35176 ft 432 kts 189°
2026-05-07 05:31 -38.54974 174.43227 35181 ft 433 kts 189°
2026-05-07 05:31 -38.60965 174.42386 35179 ft 433 kts 189°
2026-05-07 05:32 -38.66963 174.41542 35175 ft 434 kts 189°
2026-05-07 05:32 -38.72966 174.40696 35174 ft 434 kts 189°
2026-05-07 05:33 -38.78970 174.39848 35178 ft 434 kts 189°
2026-05-07 05:33 -38.84978 174.38999 35174 ft 434 kts 189°
2026-05-07 05:34 -38.90992 174.38147 35175 ft 435 kts 189°
2026-05-07 05:34 -38.97006 174.37293 35173 ft 435 kts 189°
2026-05-07 05:35 -39.03023 174.36438 35172 ft 435 kts 189°
2026-05-07 05:35 -39.09083 174.36004 35171 ft 439 kts 182°
2026-05-07 05:36 -39.15200 174.36374 35166 ft 441 kts 180°
2026-05-07 05:36 -39.21322 174.36819 35161 ft 441 kts 181°
2026-05-07 05:37 -39.27449 174.37215 35157 ft 441 kts 181°
2026-05-07 05:37 -39.33581 174.37577 35153 ft 441 kts 181°
2026-05-07 05:38 -39.39714 174.37928 35150 ft 441 kts 181°
2026-05-07 05:38 -39.45849 174.38279 35147 ft 442 kts 181°
2026-05-07 05:39 -39.51988 174.38630 34445 ft 449 kts 181°
2026-05-07 05:39 -39.55097 174.38810 33891 ft 446 kts 181°
2026-05-07 05:39 -39.58191 174.38991 33275 ft 444 kts 181°
2026-05-07 05:39 -39.61315 174.39172 32670 ft 444 kts 181°
2026-05-07 05:40 -39.64364 174.39349 32097 ft 445 kts 181°
2026-05-07 05:40 -39.67464 174.39528 31469 ft 447 kts 181°
2026-05-07 05:40 -39.70576 174.39708 30870 ft 449 kts 180°
2026-05-07 05:40 -39.73717 174.39889 30277 ft 455 kts 180°
2026-05-07 05:41 -39.76902 174.40073 29606 ft 461 kts 180°
2026-05-07 05:41 -39.80110 174.40260 28929 ft 461 kts 180°
2026-05-07 05:41 -39.83317 174.40448 28272 ft 462 kts 180°
2026-05-07 05:41 -39.86531 174.40636 27623 ft 463 kts 180°
2026-05-07 05:42 -39.89748 174.40825 26993 ft 463 kts 180°
2026-05-07 05:42 -39.92968 174.41014 26377 ft 464 kts 180°
2026-05-07 05:42 -39.96196 174.41203 25760 ft 465 kts 180°
2026-05-07 05:42 -39.99443 174.41392 25113 ft 468 kts 180°
2026-05-07 05:43 -40.02696 174.41583 24489 ft 468 kts 180°
2026-05-07 05:43 -40.05939 174.41774 23871 ft 463 kts 180°
2026-05-07 05:43 -40.09140 174.41964 23188 ft 458 kts 180°
2026-05-07 05:43 -40.12302 174.42152 22476 ft 452 kts 180°
2026-05-07 05:44 -40.15429 174.42327 21825 ft 447 kts 180°
2026-05-07 05:44 -40.18519 174.42504 21148 ft 443 kts 180°
2026-05-07 05:44 -40.21585 174.42687 20489 ft 440 kts 180°
2026-05-07 05:44 -40.24634 174.42871 19839 ft 437 kts 180°
2026-05-07 05:45 -40.27660 174.43052 19210 ft 434 kts 180°
2026-05-07 05:45 -40.30666 174.43232 18590 ft 432 kts 180°
2026-05-07 05:45 -40.33645 174.43409 17914 ft 429 kts 180°
2026-05-07 05:45 -40.36635 174.43586 17214 ft 427 kts 180°
2026-05-07 05:46 -40.39579 174.43761 16524 ft 421 kts 180°
2026-05-07 05:46 -40.42482 174.43934 15852 ft 415 kts 180°
2026-05-07 05:46 -40.45350 174.44105 15203 ft 410 kts 180°
2026-05-07 05:46 -40.48186 174.44273 14571 ft 407 kts 180°
2026-05-07 05:47 -40.51004 174.44440 14076 ft 403 kts 180°
2026-05-07 05:47 -40.53798 174.44606 13547 ft 401 kts 180°
2026-05-07 05:47 -40.56579 174.44771 13011 ft 399 kts 181°
2026-05-07 05:47 -40.59340 174.44935 12516 ft 394 kts 181°
2026-05-07 05:48 -40.62040 174.45098 12135 ft 383 kts 181°
2026-05-07 05:48 -40.64670 174.45256 11759 ft 374 kts 181°
2026-05-07 05:48 -40.67239 174.45409 11378 ft 366 kts 181°
2026-05-07 05:48 -40.69746 174.45560 11139 ft 354 kts 181°
2026-05-07 05:49 -40.72153 174.45797 11091 ft 340 kts 178°
2026-05-07 05:49 -40.74445 174.46191 11076 ft 325 kts 176°
2026-05-07 05:49 -40.76645 174.46615 11086 ft 318 kts 176°
2026-05-07 05:49 -40.78804 174.47029 11028 ft 320 kts 177°
2026-05-07 05:50 -40.81050 174.47445 10511 ft 330 kts 177°
2026-05-07 05:50 -40.83328 174.47862 10053 ft 331 kts 177°
2026-05-07 05:50 -40.85618 174.48276 9532 ft 333 kts 177°
2026-05-07 05:50 -40.87915 174.48689 9104 ft 332 kts 177°
2026-05-07 05:51 -40.90161 174.49095 9003 ft 319 kts 178°
2026-05-07 05:51 -40.92313 174.49484 8976 ft 304 kts 178°
2026-05-07 05:51 -40.94337 174.49849 8961 ft 285 kts 178°
2026-05-07 05:51 -40.96278 174.50195 8980 ft 279 kts 179°
2026-05-07 05:52 -40.98205 174.50535 8997 ft 280 kts 179°
2026-05-07 05:52 -41.00145 174.50877 8999 ft 282 kts 179°
2026-05-07 05:52 -41.02093 174.51222 8999 ft 283 kts 179°
2026-05-07 05:52 -41.04053 174.51570 8996 ft 285 kts 178°
2026-05-07 05:53 -41.06035 174.51921 9020 ft 290 kts 178°
2026-05-07 05:53 -41.08082 174.52286 8502 ft 305 kts 177°
2026-05-07 05:53 -41.10206 174.52728 7949 ft 313 kts 176°
2026-05-07 05:53 -41.12382 174.53205 7391 ft 320 kts 175°
2026-05-07 05:54 -41.14576 174.53687 7110 ft 314 kts 175°
2026-05-07 05:54 -41.16673 174.54147 6992 ft 296 kts 176°
2026-05-07 05:54 -41.18649 174.54578 6968 ft 282 kts 176°
2026-05-07 05:54 -41.20560 174.54987 6966 ft 277 kts 176°
2026-05-07 05:55 -41.22473 174.55394 6989 ft 280 kts 176°
2026-05-07 05:55 -41.24422 174.55808 6998 ft 286 kts 176°
2026-05-07 05:55 -41.26407 174.56233 6650 ft 297 kts 176°
2026-05-07 05:55 -41.28499 174.56677 6004 ft 311 kts 176°
2026-05-07 05:56 -41.30641 174.57375 5356 ft 325 kts 162°
2026-05-07 05:56 -41.32741 174.58587 4735 ft 330 kts 156°
2026-05-07 05:56 -41.34815 174.59885 4120 ft 328 kts 156°
2026-05-07 05:56 -41.36883 174.61142 3497 ft 326 kts 157°
2026-05-07 05:57 -41.38935 174.62353 3146 ft 316 kts 157°
2026-05-07 05:57 -41.40824 174.63657 2993 ft 293 kts 141°
2026-05-07 05:57 -41.42280 174.65288 2995 ft 259 kts 136°
2026-05-07 05:57 -41.43597 174.66787 2987 ft 243 kts 137°
2026-05-07 05:58 -41.44814 174.68258 2986 ft 230 kts 127°
2026-05-07 05:58 -41.45719 174.69895 2953 ft 210 kts 111°
2026-05-07 05:58 -41.46359 174.71529 2795 ft 189 kts 104°
2026-05-07 05:58 -41.46822 174.73058 2597 ft 167 kts 90°
2026-05-07 05:59 -41.47034 174.74493 2524 ft 153 kts 75°
2026-05-07 05:59 -41.46985 174.75830 2567 ft 141 kts 58°
2026-05-07 05:59 -41.46683 174.77002 2592 ft 126 kts 39°
2026-05-07 05:59 -41.46208 174.77937 2470 ft 119 kts 28°
2026-05-07 06:00 -41.45656 174.78707 2347 ft 108 kts 24°
2026-05-07 06:00 -41.45092 174.79301 2012 ft 101 kts 12°
2026-05-07 06:00 -41.44476 174.79674 1775 ft 94 kts
2026-05-07 06:00 -41.43861 174.79897 1706 ft 88 kts
2026-05-07 06:01 -41.43277 174.80115 1690 ft 87 kts 359°
2026-05-07 06:01 -41.42672 174.80139 1756 ft 86 kts 352°
2026-05-07 06:01 -41.42084 174.80130 1868 ft 84 kts 351°
2026-05-07 06:01 -41.41494 174.80126 1844 ft 85 kts 352°
2026-05-07 06:02 -41.40904 174.80098 1640 ft 86 kts 349°
2026-05-07 06:02 -41.40295 174.80046 1377 ft 89 kts 355°
2026-05-07 06:02 -41.39681 174.80110 1196 ft 89 kts
2026-05-07 06:02 -41.39055 174.80267 1081 ft 96 kts
2026-05-07 06:03 -41.38372 174.80325 1076 ft 100 kts 357°
2026-05-07 06:03 -41.37669 174.80341 944 ft 100 kts 358°
2026-05-07 06:03 -41.36982 174.80358 800 ft 98 kts 359°
2026-05-07 06:03 -41.36285 174.80413 601 ft 102 kts
2026-05-07 06:04 -41.35560 174.80487 435 ft 105 kts
2026-05-07 06:04 -41.34843 174.80526 371 ft 102 kts
2026-05-07 06:04 -41.34138 174.80589 199 ft 99 kts
2026-05-07 06:04 -41.33444 174.80640 45 ft 102 kts
2026-05-07 06:05 -41.32824 174.80680 30 ft 74 kts
2026-05-07 06:05 -41.32513 174.80702 28 ft 28 kts
2026-05-07 06:05 -41.32423 174.80727 34 ft 0 kts 49°
2026-05-07 06:05 -41.32422 174.80730 34 ft 3 kts 49°
2026-05-07 06:06 -41.32420 174.80733 34 ft 3 kts 50°
2026-05-07 06:06 -41.32424 174.80820 33 ft 8 kts 135°
2026-05-07 06:06 -41.32476 174.80831 32 ft 8 kts 183°
2026-05-07 06:06 -41.32557 174.80825 29 ft 14 kts 183°
2026-05-07 06:07 -41.32655 174.80820 27 ft 12 kts 181°
2026-05-07 06:07 -41.32719 174.80863 27 ft 11 kts 118°
2026-05-07 06:07 -41.32775 174.80889 28 ft 8 kts 177°
2026-05-07 06:07 -41.32834 174.80884 25 ft 8 kts 181°
2026-05-07 06:08 -41.32884 174.80884 27 ft 7 kts 181°
2026-05-07 06:08 -41.32914 174.80931 26 ft 8 kts 94°
2026-05-07 06:08 -41.32914 174.80999 25 ft 7 kts 83°
2026-05-07 06:08 -41.32888 174.81037 29 ft 0 kts 31°
2026-05-07 06:09 -41.32883 174.81041 28 ft 2 kts 31°
2026-05-07 06:09 -41.32872 174.81050 28 ft 0 kts 31°